GFSGL_sfc_30mbdewp_000.txt.gz
Dewpoint
65 65 65 63 65 66 65 66 66 66 66 66 66 67 67 66 66 66 66 65 64 62 63 64 63 64 63 63 62 62 59 59 58 62 63 67 64 66 66 66 64 61 61
65 65 64 64 63 66 65 65 66 65 66 65 66 66 66 66 66 66 64 63 63 63 64 63 63 63 63 63 61 59 62 63 60 60 62 63 64 67 63 61 58 56 55
65 64 63 64 64 64 65 66 66 65 65 65 65 65 65 65 65 64 63 62 62 62 61 61 61 62 62 61 61 61 62 62 62 61 61 64 63 63 63 59 57 56 52
62 64 62 63 63 64 65 66 66 65 65 65 65 65 65 65 64 63 62 62 62 61 60 59 60 60 60 61 61 61 61 59 61 60 60 60 60 62 62 60 56 54 50
61 63 63 62 62 63 65 65 65 65 65 65 64 65 65 64 64 63 62 61 60 59 58 58 58 58 58 58 59 56 58 61 60 59 59 58 59 60 60 58 59 58 53
59 63 62 61 62 62 64 63 64 64 64 64 63 63 62 62 63 63 63 61 60 58 57 55 53 50 50 50 52 54 54 57 59 58 59 59 58 55 54 53 53 49 50
61 60 61 61 62 61 61 62 63 64 64 63 61 60 59 56 57 62 62 62 60 60 58 57 56 52 51 48 53 50 49 53 56 59 57 55 54 54 53 53 50 50 50
63 61 61 60 59 62 62 63 64 63 61 59 58 56 54 48 52 57 61 59 57 53 54 52 50 48 49 53 49 45 43 43 47 46 45 44 44 47 49 50 49 50 50
64 63 61 62 63 63 63 63 61 59 56 55 54 53 51 47 47 53 55 52 49 46 47 48 48 49 50 51 48 45 43 43 46 45 44 43 43 44 46 47 43 42 41
63 63 62 61 59 57 58 57 56 55 54 52 50 50 49 46 45 47 52 48 45 44 43 44 45 46 47 50 52 50 47 47 50 48 47 47 47 44 45 46 44 41 39
55 56 55 54 53 53 52 53 52 50 49 48 48 48 48 47 45 45 45 48 44 43 43 44 43 42 42 43 46 47 46 48 46 45 45 44 43 44 43 43 45 43 41
52 52 51 51 51 50 49 48 47 47 46 45 45 45 46 46 47 46 46 46 46 45 44 44 44 44 44 44 43 43 43 45 47 45 46 45 39 37 37 40 42 43 44
49 49 49 50 50 49 48 47 47 46 45 44 44 44 44 46 46 46 46 46 47 46 46 46 45 46 45 44 43 43 43 41 39 38 37 36 35 36 33 40 42 43 43
49 49 50 50 50 50 49 49 47 46 45 44 44 43 44 45 45 47 46 46 46 46 45 44 44 43 43 39 39 40 40 37 36 35 35 34 35 29 29 26 25 27 25
47 45 43 42 40 40 40 41 42 42 43 42 42 40 38 35 35 36 44 46 44 40 38 42 40 39 38 39 37 37 33 36 34 33 31 30 30 26 27 24 29 28 28
44 39 36 35 35 35 34 33 36 35 33 33 32 30 33 35 34 33 34 34 34 34 38 36 37 36 34 33 33 34 35 34 33 34 31 29 27 25 23 23 28 26 26
42 41 38 36 35 33 31 29 28 30 31 30 28 28 30 31 30 30 31 31 31 32 33 33 33 33 32 32 31 31 31 34 35 36 30 30 27 26 23 24 24 25 27
40 38 36 36 35 35 34 32 31 32 31 29 31 30 29 28 28 28 29 30 32 29 29 29 31 32 33 32 33 32 31 32 29 29 29 27 26 24 23 24 24 26 27
39 37 38 38 36 36 35 34 33 35 34 32 29 29 28 27 28 29 30 32 26 24 25 28 29 29 31 31 31 31 30 30 27 30 27 25 24 23 23 23 23 24 26
39 39 37 35 35 34 34 33 34 34 34 35 33 32 30 29 29 31 31 26 24 24 24 25 26 28 28 29 30 29 29 28 30 26 25 24 24 23 22 22 22 25 26
36 37 39 37 36 35 34 34 36 35 33 31 30 24 22 27 22 23 22 24 24 24 25 26 23 24 25 29 29 29 26 25 27 26 25 24 24 22 23 23 22 24 25
38 37 38 38 39 38 38 39 38 36 34 29 27 17 18 24 20 22 24 25 26 27 27 27 24 23 23 26 27 27 27 26 28 27 26 25 23 23 24 21 22 23 22
41 38 39 40 40 39 37 39 38 37 31 28 26 22 21 22 21 23 25 26 26 27 28 28 27 25 26 29 29 30 29 29 27 26 25 23 22 24 23 24 22 20 20
40 34 32 41 40 38 37 39 37 31 29 27 25 21 20 22 23 30 27 27 27 27 28 26 25 24 26 26 27 30 30 30 31 26 25 22 24 26 26 25 21 21 20
33 34 32 37 36 35 37 35 33 28 27 25 23 21 21 24 24 25 27 27 27 28 26 25 27 25 24 26 30 29 26 24 25 23 22 22 24 27 27 24 22 21 22
31 32 32 32 33 31 33 31 30 30 28 25 23 22 22 23 24 26 26 27 28 26 29 30 29 26 26 29 29 26 23 22 24 20 20 23 25 27 25 24 22 22 22

GFSGL_sfc_30mbdewp_003.txt.gz
Dewpoint
64 66 63 64 65 64 65 65 65 65 66 66 66 66 66 65 65 66 65 65 65 64 64 64 64 63 64 64 63 62 61 61 59 62 64 66 66 66 67 67 65 64 64
65 66 63 62 65 65 64 65 65 65 65 66 66 66 65 66 66 65 65 65 64 64 64 63 63 63 62 62 63 62 62 62 60 60 63 64 64 66 63 61 61 59 58
66 64 64 63 64 63 64 65 65 64 64 65 66 65 65 64 63 62 62 62 60 60 60 61 61 61 60 61 61 62 61 61 62 61 61 63 62 63 59 57 55 55 58
65 64 63 63 63 65 65 65 65 65 64 65 65 65 64 63 63 63 63 61 60 59 59 59 59 59 60 60 58 58 59 60 61 60 61 60 60 61 58 54 51 51 53
64 64 62 62 63 65 65 65 64 64 63 64 64 63 63 63 63 62 61 60 59 58 57 57 57 58 56 57 56 56 57 59 60 59 60 60 60 60 60 59 54 55 52
61 64 62 62 63 64 64 64 64 64 64 63 61 59 59 58 62 62 61 59 58 56 55 53 53 53 56 55 54 55 56 58 60 59 60 58 56 57 55 54 55 52 49
60 64 63 62 63 63 64 63 63 60 60 58 56 52 50 51 58 62 60 59 58 56 56 57 56 55 53 51 47 45 48 50 54 56 54 53 49 50 53 50 49 50 48
64 63 62 62 62 64 63 62 60 58 56 54 52 48 47 48 55 62 55 50 49 49 50 49 48 50 51 44 40 40 41 42 41 44 44 43 45 45 47 49 48 50 49
64 63 63 64 63 62 60 58 55 53 51 50 49 47 46 47 51 51 48 45 44 45 47 49 48 50 49 44 43 44 45 45 48 46 46 45 45 45 45 43 42 40 40
59 61 61 60 59 58 57 55 52 50 49 48 47 47 47 45 47 49 45 42 42 43 43 43 46 47 49 51 49 47 46 47 48 47 46 46 43 45 45 45 44 42 41
54 54 54 54 53 52 51 49 49 48 47 47 47 47 47 46 46 45 45 44 43 43 43 42 43 43 43 43 43 44 45 46 46 45 45 44 44 43 45 47 46 43 42
51 51 51 51 50 49 48 47 47 46 46 46 46 46 47 47 47 46 46 46 45 44 45 46 46 46 46 46 46 46 45 44 46 47 46 40 35 35 36 41 41 41 43
49 49 49 49 49 49 48 47 46 46 45 45 45 45 45 46 47 47 47 47 47 47 47 47 46 44 43 42 42 41 40 40 37 37 37 37 38 37 32 28 34 42 42
49 49 50 49 48 48 47 46 46 45 45 44 44 44 44 44 45 47 47 47 47 47 47 46 45 44 43 40 40 36 38 39 37 35 33 32 34 28 28 27 25 27 28
42 41 40 39 39 39 40 40 40 41 42 42 42 40 36 34 35 40 45 45 44 41 38 41 40 41 40 39 40 35 36 35 33 35 34 30 27 27 23 24 25 29 26
36 35 34 34 33 33 29 29 34 31 30 30 31 31 33 33 33 34 34 33 34 33 38 34 34 32 31 32 33 36 34 34 34 37 33 30 28 27 23 24 29 29 28
34 35 34 33 31 29 27 25 23 27 28 27 29 30 29 29 30 30 29 30 31 33 32 32 32 32 33 33 32 32 31 31 34 32 31 31 28 24 24 26 27 28 27
40 38 35 34 32 29 27 26 28 28 26 27 30 27 28 28 28 28 28 30 32 30 29 31 31 33 33 31 31 30 29 30 27 30 31 27 25 24 24 25 26 27 26
38 38 37 37 35 33 32 31 34 33 30 27 26 27 26 27 27 28 29 29 28 27 29 29 29 30 29 29 30 31 30 31 27 31 26 24 25 23 22 24 23 26 26
42 40 38 37 38 39 38 37 36 35 31 30 31 27 27 27 28 29 30 27 25 26 27 29 28 27 28 28 28 27 28 31 29 26 25 25 25 24 24 23 22 22 26
37 39 37 37 36 36 38 36 35 37 35 34 30 31 31 31 30 28 25 25 25 28 27 26 28 27 30 30 28 29 28 29 27 26 26 25 24 23 26 22 21 22 25
38 39 39 40 40 40 39 39 37 36 29 24 20 16 20 23 25 25 26 27 28 29 27 27 26 25 28 27 27 28 28 29 26 25 25 23 22 23 26 23 24 25 24
42 41 41 42 40 39 40 39 39 37 30 25 18 19 20 24 25 27 28 28 29 29 28 28 28 28 29 29 32 32 29 28 27 26 22 20 22 26 27 25 26 24 22
39 39 41 41 40 38 41 39 38 32 31 29 23 23 24 25 29 27 29 28 28 29 29 28 25 25 25 29 29 29 30 30 26 24 23 23 24 26 28 27 25 21 21
33 39 41 40 40 40 39 39 39 32 28 26 25 23 25 26 29 29 30 29 29 31 29 28 26 26 30 29 29 27 26 24 22 22 20 21 23 25 28 25 23 22 22
34 36 35 39 39 38 38 37 37 30 28 27 26 25 26 26 27 30 29 28 28 32 31 31 27 29 31 32 30 27 24 24 22 17 18 23 24 25 27 24 21 21 21

GFSGL_sfc_30mbdewp_006.txt.gz
Dewpoint
65 64 64 64 63 64 64 65 64 65 65 66 66 66 65 65 65 65 65 66 65 65 65 65 64 64 64 64 65 64 63 63 60 63 64 66 66 66 66 65 65 65 64
65 64 62 64 64 63 64 64 64 64 65 66 65 65 64 65 65 65 65 65 64 64 64 65 62 64 64 64 63 63 63 64 62 60 63 64 65 65 64 63 62 60 61
65 65 62 62 64 64 64 64 64 64 65 65 64 63 63 63 62 62 61 61 61 61 62 62 63 62 62 61 60 61 61 62 63 62 62 63 63 63 59 57 56 58 58
65 63 64 63 64 64 65 64 64 64 64 64 63 63 62 62 62 61 61 60 59 59 59 59 59 60 59 58 58 59 60 59 61 61 60 60 61 59 58 54 50 53 55
65 63 62 63 64 65 64 64 63 64 63 63 62 62 62 62 62 61 60 60 59 58 57 58 59 59 59 59 58 58 59 59 59 60 60 60 60 60 58 57 51 53 52
64 63 62 63 65 64 64 64 63 62 60 58 57 58 59 59 61 60 59 58 56 55 54 54 56 56 56 56 57 57 59 59 60 59 59 58 56 57 56 57 54 49 47
63 64 63 64 64 64 63 61 60 58 55 53 52 53 55 57 60 59 59 57 56 56 56 55 55 55 53 50 49 49 50 53 57 60 56 52 50 52 53 52 51 52 48
64 64 63 64 63 62 60 58 56 54 52 50 48 49 51 53 57 53 52 50 50 50 49 50 53 54 48 41 42 43 43 43 43 46 48 46 46 47 50 49 50 48 46
62 63 63 64 62 59 57 54 51 50 48 47 47 47 50 51 50 48 46 46 45 45 47 49 50 47 44 45 45 45 45 46 48 47 47 46 46 46 44 42 40 43 42
56 60 63 62 60 57 54 51 49 48 47 46 46 46 47 47 47 44 43 43 43 42 43 45 47 47 47 47 47 47 46 46 46 46 45 43 44 45 44 44 44 42 42
54 54 54 54 54 52 50 49 48 47 47 47 47 47 47 46 45 44 44 43 43 43 43 44 45 44 44 45 45 45 45 47 47 47 44 42 40 41 43 44 44 43 43
50 50 50 50 51 50 49 48 47 47 47 47 47 46 47 47 47 46 45 45 46 46 46 47 47 45 45 45 44 42 41 43 45 41 40 35 34 34 36 41 41 42 43
50 49 49 49 49 48 48 47 47 47 46 46 45 45 45 46 47 47 47 47 47 46 47 46 44 43 42 41 41 39 38 38 35 32 31 35 36 32 26 25 27 30 40
48 47 47 47 47 47 47 47 46 45 45 45 45 44 44 45 46 47 47 47 47 47 46 45 44 42 41 39 36 36 37 37 35 33 31 32 31 26 22 25 26 29 28
42 42 42 41 41 40 39 40 41 42 44 43 43 41 40 41 41 42 44 43 42 38 41 40 39 39 38 39 36 35 35 34 35 33 29 27 26 26 22 24 26 28 27
36 36 35 32 29 29 28 28 35 34 33 34 34 34 34 35 37 37 35 35 35 38 35 33 32 32 32 34 34 31 32 34 35 32 31 28 25 24 23 26 28 28 26
33 32 30 27 26 25 25 23 23 27 31 31 30 30 31 32 31 30 29 31 32 33 32 32 33 33 32 31 30 30 30 28 29 31 29 26 24 23 24 25 28 27 26
34 33 30 26 25 24 24 23 24 21 22 25 28 28 29 28 28 29 30 32 33 33 32 32 33 32 31 30 30 29 29 29 30 28 25 25 24 23 23 24 24 26 26
37 33 30 29 28 27 27 29 28 25 23 24 25 26 26 26 27 28 30 29 28 29 30 30 31 29 28 28 30 29 29 32 29 26 24 24 24 23 23 24 22 24 27
36 35 34 33 31 30 31 33 32 28 25 25 25 25 26 26 27 30 28 26 26 28 29 28 28 29 27 28 27 29 29 31 25 25 24 24 24 24 24 23 21 21 23
41 41 39 38 37 34 34 34 35 31 29 29 28 29 28 27 29 30 25 26 26 26 27 27 28 28 29 28 28 28 29 27 27 26 24 23 23 22 26 23 24 25 26
38 37 38 38 39 39 37 38 37 34 33 32 30 28 29 25 27 26 26 26 28 27 27 27 26 29 30 27 27 28 29 27 26 25 23 21 21 25 27 25 26 25 23
40 40 41 40 39 39 39 39 36 35 32 27 19 19 21 26 26 27 27 28 28 27 28 29 29 29 29 31 32 31 29 26 26 25 23 20 21 26 28 26 25 22 21
41 41 42 41 39 40 39 39 39 33 28 23 19 21 22 25 27 28 28 28 29 29 30 27 25 25 29 30 31 31 31 28 26 24 22 22 23 25 27 26 23 22 21
35 37 42 41 39 39 40 39 38 32 32 28 21 22 24 28 28 28 29 28 29 30 28 26 25 26 27 28 28 28 28 25 22 21 18 19 22 25 27 25 23 21 21
36 37 41 42 41 40 40 40 38 35 29 28 27 25 26 28 28 29 30 29 30 30 28 27 26 28 28 29 29 27 25 23 20 16 17 22 24 25 27 27 27 22 23

GFSGL_sfc_30mbdewp_009.txt.gz
Dewpoint
65 63 63 63 63 63 64 64 64 65 65 66 65 65 65 65 65 65 65 65 65 65 65 65 65 65 65 65 65 64 63 63 61 61 64 65 66 65 64 64 64 63 63
65 63 63 64 63 63 63 63 64 65 65 65 64 64 64 64 65 65 65 65 65 64 65 64 64 65 64 65 64 64 64 64 62 60 63 63 64 64 63 62 61 61 61
65 63 61 63 64 63 63 63 64 64 64 63 63 62 62 62 62 62 62 62 62 63 64 64 63 64 63 62 62 62 62 63 63 62 61 62 63 61 57 55 57 57 57
65 65 63 62 63 64 64 63 64 64 62 62 62 62 62 62 61 61 60 59 59 59 60 60 61 61 60 60 61 61 61 62 62 61 61 61 61 60 58 54 52 55 53
64 63 63 63 64 64 63 63 63 62 61 60 60 61 61 61 61 60 60 59 58 58 58 59 60 60 60 60 59 60 59 59 60 60 60 60 60 59 58 57 52 53 53
65 63 63 63 64 64 62 62 61 58 57 57 58 59 60 59 59 59 58 57 56 56 55 56 56 56 56 57 57 57 58 60 58 58 58 58 57 57 57 58 54 51 49
64 64 63 65 64 63 62 60 58 55 53 53 54 56 57 58 58 58 57 56 56 56 55 55 56 54 51 49 47 46 47 49 54 59 56 52 52 53 54 54 54 54 51
63 64 63 64 63 61 59 57 54 52 50 50 50 53 56 55 54 53 52 49 48 49 49 53 52 46 44 44 44 44 45 46 46 47 48 49 49 48 49 51 53 50 48
58 63 64 63 61 58 56 53 50 49 48 48 48 50 52 49 48 47 46 45 45 46 48 49 44 45 47 46 46 46 46 45 46 46 46 46 46 47 45 42 42 43 42
55 56 64 62 59 56 53 50 48 47 47 47 47 47 48 46 44 45 44 44 45 45 45 46 47 46 46 46 46 45 45 46 45 43 42 42 41 42 44 43 44 43 43
53 53 54 56 55 52 51 49 47 47 47 47 47 47 46 45 44 44 44 44 44 44 44 44 46 45 45 44 44 45 46 48 46 44 39 36 36 40 43 43 44 43 41
50 50 50 51 51 50 49 48 48 48 47 47 47 47 47 47 46 45 46 46 46 46 46 46 45 42 40 40 40 40 42 43 42 39 37 35 32 29 31 39 33 41 43
49 49 48 49 49 49 48 48 47 48 47 47 46 46 46 47 48 47 47 47 47 47 46 45 43 41 38 39 39 37 36 34 32 30 30 30 30 28 25 25 28 29 32
46 46 47 47 47 47 47 47 47 46 46 46 45 45 45 46 47 47 47 47 46 45 43 42 42 40 39 36 35 34 37 37 33 29 28 28 27 23 22 25 25 27 26
44 44 44 44 43 43 42 42 43 43 45 45 44 44 44 43 42 42 43 41 38 40 40 38 36 36 36 33 32 35 35 34 31 30 26 25 24 23 23 27 29 27 28
38 36 34 33 32 31 31 30 36 37 37 37 37 38 37 39 39 37 36 35 36 36 32 31 32 33 35 32 29 29 29 31 31 31 27 25 23 23 24 27 28 27 26
34 31 29 26 25 25 25 25 25 29 32 32 33 33 34 32 31 30 31 34 34 32 31 33 32 31 31 30 29 30 29 28 30 27 24 24 23 23 24 24 27 27 26
31 28 24 24 23 22 22 23 24 24 25 27 29 30 29 29 28 31 32 33 33 33 33 33 32 31 30 29 30 29 29 28 27 25 24 24 23 23 23 23 24 26 26
29 27 26 25 25 25 25 24 22 24 26 27 27 27 27 28 31 31 32 32 31 30 31 32 31 29 28 29 28 28 30 28 27 24 24 23 23 23 23 23 22 24 26
31 29 28 27 28 27 29 28 25 23 25 26 26 26 26 27 28 27 27 27 28 29 29 29 29 28 27 28 28 28 30 28 25 24 23 23 22 24 24 22 23 23 24
34 34 33 31 30 30 31 31 29 26 25 26 26 26 27 26 28 28 25 25 26 27 28 29 27 28 27 28 28 28 28 27 26 25 24 21 21 22 26 25 25 25 25
38 38 39 36 35 34 33 34 35 31 29 29 29 30 31 29 28 28 25 26 27 27 27 26 27 27 29 28 28 28 28 26 26 26 24 22 20 26 27 26 25 23 22
41 40 39 39 39 39 38 37 37 36 32 32 31 29 29 26 26 26 26 27 28 28 28 28 27 27 29 30 31 30 29 28 26 26 24 22 20 25 27 26 24 21 21
44 42 40 41 40 39 38 37 37 36 34 32 27 22 24 24 26 26 27 28 29 28 29 29 28 27 27 30 31 30 29 28 27 25 23 20 21 24 26 25 23 22 21
36 37 41 41 39 39 39 39 39 36 34 31 23 20 22 25 26 27 29 29 29 29 29 29 25 25 28 28 29 29 30 27 26 22 19 18 19 25 27 26 24 22 21
36 37 41 42 41 40 40 40 39 38 35 31 27 22 23 25 27 29 29 29 29 30 30 27 26 26 26 27 28 28 28 26 23 20 16 18 23 25 26 27 28 26 23

GFSGL_sfc_30mbdewp_015.txt.gz
Dewpoint
66 66 64 64 65 65 65 65 66 66 66 66 65 65 66 66 67 67 67 66 66 65 66 66 66 67 66 66 67 67 66 65 61 64 65 66 65 65 64 64 63 64 63
66 66 64 65 65 64 65 65 66 65 65 65 65 64 64 65 66 66 65 65 64 64 64 65 65 66 67 67 67 66 64 64 63 62 63 64 63 61 60 59 59 60 60
66 66 64 64 65 65 65 65 64 64 64 64 64 64 64 64 63 63 63 62 62 62 65 65 65 65 65 65 64 64 64 64 64 63 62 63 61 59 57 57 57 58 58
65 65 64 64 65 65 65 65 64 64 63 63 63 63 63 63 63 63 62 61 60 60 61 61 61 61 61 62 62 61 63 63 62 61 61 60 60 59 58 56 54 56 55
65 64 65 64 65 65 65 64 63 63 63 63 63 62 62 60 60 61 61 61 59 58 57 58 59 59 59 60 59 59 61 61 61 60 60 60 59 59 58 56 54 54 54
64 64 66 65 65 65 63 63 62 62 62 62 61 61 60 58 57 58 60 59 59 58 57 56 54 54 55 54 55 55 57 59 59 59 58 56 53 54 56 57 54 53 51
64 65 66 65 65 64 62 62 61 61 60 59 60 59 58 57 54 55 57 57 57 56 56 54 50 49 49 49 49 49 50 53 54 54 52 52 50 49 55 55 54 52 50
63 64 66 65 65 63 62 61 59 60 58 57 57 56 56 53 50 51 53 56 50 49 49 51 50 49 48 47 47 46 45 47 48 48 50 50 50 53 54 54 51 50 50
59 61 63 65 64 62 61 59 57 57 58 56 55 54 54 52 48 50 52 52 48 49 49 49 49 48 48 48 47 46 44 41 42 44 44 45 45 47 47 48 46 46 44
56 56 58 64 62 61 59 56 56 56 55 54 51 50 49 49 46 48 50 48 47 47 48 46 46 47 46 48 49 48 45 43 41 40 39 41 40 36 43 44 39 44 44
54 54 55 57 57 56 55 55 54 53 53 51 49 48 48 48 46 46 47 48 47 46 45 43 42 42 43 46 48 48 46 40 38 35 33 30 29 29 30 39 43 38 40
52 52 52 52 52 51 51 51 51 52 52 49 48 47 48 48 48 47 47 47 46 43 41 40 39 38 38 38 40 40 39 38 35 33 30 28 28 28 30 34 41 42 43
50 50 50 50 50 50 50 50 49 50 49 48 47 47 47 49 48 47 46 45 45 44 43 39 37 36 37 36 37 35 35 34 31 29 28 28 28 32 31 32 35 44 45
48 49 49 49 49 49 49 50 50 49 48 47 47 47 48 48 48 48 47 45 44 40 39 37 37 37 36 35 34 34 32 31 30 29 29 28 27 27 28 29 27 29 32
48 48 47 47 46 45 43 45 47 47 48 47 48 48 45 45 45 45 43 41 41 39 38 36 34 33 33 32 33 33 32 32 31 30 28 26 26 26 27 28 27 26 25
47 47 46 44 43 42 42 40 39 41 43 44 45 45 42 42 40 38 38 39 36 36 36 35 34 33 32 32 31 31 32 32 30 28 27 24 23 24 27 27 27 26 26
46 44 41 41 40 37 40 39 37 36 37 38 39 40 40 36 34 36 34 33 33 34 32 33 34 32 32 31 29 28 29 30 31 27 25 24 23 23 24 24 26 26 26
37 33 28 24 24 25 27 30 34 37 38 37 32 33 30 30 34 34 33 33 31 32 31 31 32 31 30 29 29 28 28 28 27 27 26 24 22 22 22 22 23 24 25
27 27 26 25 24 25 25 25 26 30 32 34 34 30 31 31 33 34 33 30 28 28 29 30 30 28 28 29 30 30 31 28 27 27 26 25 26 24 23 22 22 23 23
30 30 29 28 27 26 26 27 29 30 31 32 32 30 30 30 31 33 33 33 29 28 29 29 30 29 29 30 30 29 29 30 29 27 26 26 26 25 23 22 22 22 23
32 31 31 31 31 30 29 28 28 29 29 29 30 30 29 29 27 28 29 31 29 28 29 29 29 29 28 30 29 29 27 26 28 27 27 27 27 25 24 23 23 23 23
33 33 33 32 33 33 33 33 31 29 29 29 29 29 27 28 27 27 27 27 26 28 29 30 28 28 26 26 28 28 27 26 27 28 28 27 27 25 22 23 23 23 22
37 36 36 37 37 36 35 35 35 35 33 32 30 28 28 27 28 29 29 29 28 29 30 30 29 26 26 28 29 29 27 27 28 29 29 28 26 22 19 23 22 21 21
39 39 40 40 42 42 40 39 38 37 36 36 35 33 32 29 29 30 30 29 29 29 31 30 29 26 28 30 30 29 28 28 29 29 30 27 24 18 18 22 22 21 22
43 42 42 41 39 37 39 40 40 40 39 38 37 36 35 33 30 29 30 29 29 29 30 31 30 30 31 31 29 28 27 29 30 28 29 26 20 18 18 22 23 23 22
37 38 38 36 37 40 41 41 41 40 39 38 38 37 36 34 32 27 29 30 29 28 29 30 31 31 31 31 31 29 30 28 29 28 26 21 22 21 16 23 25 24 22

GFSGL_sfc_30mbdewp_021.txt.gz
Dewpoint
64 64 64 63 63 65 64 65 66 66 67 67 66 66 66 67 68 68 67 66 66 66 67 66 66 67 67 66 67 67 66 67 65 65 66 68 64 64 62 62 62 61 61
64 64 64 63 63 65 64 64 66 65 66 66 66 66 66 65 66 66 65 66 66 66 66 66 65 65 66 67 68 67 67 68 66 63 65 62 60 59 59 59 59 59 59
64 64 63 63 64 66 64 64 65 64 64 64 65 64 65 65 65 65 64 64 63 63 63 63 64 65 64 65 64 65 65 66 65 64 63 62 59 59 57 58 57 56 57
62 62 62 63 64 66 64 63 64 64 64 64 64 63 64 64 64 63 63 63 62 61 61 62 62 62 63 63 63 63 64 63 62 61 60 59 59 59 59 56 54 55 54
63 61 62 64 64 66 64 63 64 63 63 63 63 62 60 60 61 62 62 61 61 60 59 58 58 58 58 60 61 62 62 62 62 61 59 58 57 57 57 57 54 53 53
62 62 63 65 65 67 64 63 64 63 63 63 61 61 60 58 58 60 61 61 60 59 59 59 58 57 55 56 56 57 60 61 60 58 57 55 56 56 57 55 54 53 50
66 64 64 65 66 67 65 63 64 63 62 62 61 61 59 57 56 58 59 59 59 58 57 56 54 54 56 55 54 53 53 55 57 58 55 54 55 56 57 56 55 54 53
65 65 66 68 68 67 66 64 64 62 61 61 60 60 58 54 53 53 55 58 57 56 56 55 55 53 52 51 49 46 45 47 50 51 52 53 54 57 56 56 55 53 53
63 62 63 65 66 67 66 64 63 62 61 60 60 59 58 56 51 51 53 55 55 54 54 52 50 50 49 50 50 47 44 41 40 39 39 40 41 43 46 52 50 49 47
58 59 60 61 65 66 65 64 63 62 60 59 59 58 56 55 48 48 50 53 52 50 49 48 47 49 48 50 53 51 49 48 47 47 44 43 42 41 43 47 42 42 47
58 58 58 58 58 63 63 63 62 61 59 58 56 55 54 51 50 47 48 53 52 49 47 45 45 45 46 47 49 51 48 46 43 43 38 33 33 35 38 42 46 40 41
57 56 55 55 55 56 57 58 58 60 58 56 55 54 52 50 48 46 46 46 49 47 45 43 41 41 39 40 42 40 40 41 40 31 30 30 31 32 37 42 45 43 44
55 55 54 53 53 53 53 54 54 53 55 53 50 49 49 48 47 45 44 45 44 46 43 36 34 34 34 34 34 34 35 36 31 30 30 30 32 34 40 40 45 45 43
54 52 52 51 50 50 51 52 51 51 50 49 48 49 49 49 49 48 44 40 37 36 37 38 39 35 34 33 33 33 34 33 32 30 29 29 30 30 30 30 29 32 34
53 52 51 49 47 46 45 47 48 48 50 50 50 50 50 48 47 44 43 43 42 40 38 36 35 36 33 33 33 33 33 33 31 31 29 28 27 28 28 29 29 29 28
52 51 50 49 48 47 46 45 42 44 47 48 48 47 45 45 43 41 40 40 39 38 38 39 34 33 31 31 31 31 32 31 31 29 28 26 26 26 28 28 28 28 28
51 51 49 49 48 48 47 47 45 42 41 41 42 41 42 39 38 38 38 37 36 36 37 34 33 33 31 30 29 29 29 32 37 29 27 26 25 26 26 26 27 27 27
49 43 44 41 39 40 41 43 44 44 43 42 38 39 36 35 36 36 36 35 31 33 34 31 31 31 30 29 29 29 29 30 30 29 28 26 25 24 24 24 24 25 25
33 31 30 29 29 29 29 29 30 32 34 37 37 34 32 35 35 34 34 34 35 28 27 28 31 30 30 30 30 32 33 30 30 30 29 28 27 26 25 24 23 17 17
34 32 32 31 31 31 31 31 31 31 32 31 32 32 32 34 32 30 29 33 30 28 27 28 29 31 30 31 31 32 32 32 31 29 29 28 28 27 25 24 23 23 25
32 34 35 33 33 33 33 32 33 31 28 27 29 31 30 30 30 30 31 30 30 30 29 29 28 29 31 31 32 31 30 28 29 29 29 28 28 27 26 25 24 24 23
35 35 35 34 35 36 35 36 35 33 32 30 28 30 27 26 27 26 27 28 28 29 29 29 29 28 28 28 29 30 29 28 27 27 27 27 27 27 26 24 23 23 23
36 35 36 37 38 38 39 37 36 35 35 34 32 29 28 25 24 25 26 27 28 29 29 29 30 28 27 26 28 29 28 28 27 27 28 28 27 27 26 24 20 22 22
37 38 39 39 41 39 38 37 37 38 37 35 34 34 32 31 30 30 30 30 30 30 30 30 30 30 29 28 27 28 28 28 28 27 27 28 28 27 26 24 18 20 22
42 42 42 42 41 39 40 39 39 39 36 40 38 38 37 37 35 34 33 33 33 33 32 31 31 31 31 31 30 28 27 23 26 24 25 25 27 27 26 24 19 17 21
41 42 38 38 39 38 38 39 38 37 37 37 36 38 38 37 37 37 37 39 37 35 33 34 33 32 32 32 31 31 28 26 27 23 26 25 25 25 25 23 21 19 20

GFSGL_sfc_30mbdewp_024.txt.gz
Dewpoint
66 65 65 65 66 66 66 67 66 67 67 67 67 67 66 67 68 68 67 67 67 67 67 66 66 67 66 66 67 66 65 64 63 64 66 64 61 61 60 60 60 60 60
66 65 65 66 66 65 66 67 66 66 66 65 65 67 66 66 66 65 65 65 65 65 65 66 66 67 67 67 67 67 66 67 65 63 65 59 59 60 59 57 58 58 58
66 66 65 66 67 66 65 66 65 65 65 65 64 65 65 65 65 65 64 63 63 63 62 63 63 63 63 64 64 64 65 65 65 64 61 60 58 58 57 57 56 56 58
65 64 64 66 67 66 65 66 65 65 65 64 63 63 64 64 63 63 63 62 61 61 61 61 61 61 62 63 63 63 63 63 62 61 60 59 58 59 58 55 53 55 55
63 63 65 65 67 66 65 66 65 65 63 63 63 62 62 61 60 62 62 61 61 60 60 59 58 59 59 61 62 62 63 62 61 59 58 57 57 57 57 56 53 53 53
63 62 65 66 66 66 65 65 65 64 62 63 62 61 59 58 57 58 62 60 60 59 58 59 59 57 55 56 57 57 60 61 59 58 57 56 56 57 57 55 53 53 51
65 66 66 65 65 66 66 65 64 63 62 62 62 61 59 57 55 55 56 61 59 59 58 57 56 55 56 55 54 53 53 57 58 57 56 56 56 57 57 55 55 54 52
67 66 66 66 67 67 66 65 65 63 61 60 61 60 57 54 53 52 54 58 58 57 56 56 55 53 52 52 48 43 41 44 50 52 53 53 50 57 57 56 55 54 54
63 62 62 63 65 68 66 65 64 63 62 61 61 60 58 55 49 49 55 57 56 54 53 51 54 53 50 51 50 47 43 39 39 39 40 40 41 43 48 54 55 53 51
60 60 60 61 61 67 66 65 64 63 61 61 59 58 56 53 48 48 50 56 54 52 51 49 47 47 48 50 54 53 51 51 49 46 45 44 45 44 47 50 48 46 48
59 58 58 58 58 61 64 64 63 62 61 59 58 56 53 51 49 46 49 52 53 51 48 47 47 43 44 44 48 50 48 49 47 49 45 45 44 42 46 48 48 47 45
57 56 55 55 55 57 58 58 60 60 58 57 56 52 50 49 46 45 46 48 50 48 46 45 43 40 39 40 42 39 40 39 44 45 36 36 38 41 43 47 47 47 47
55 54 53 53 53 53 54 55 55 55 54 53 51 50 48 48 48 44 41 43 47 47 40 36 35 34 35 35 33 33 34 40 42 37 36 36 36 37 43 47 48 47 47
54 53 51 50 50 50 51 52 52 51 51 50 50 49 49 49 49 45 44 39 37 36 36 37 40 40 37 35 32 39 38 35 36 37 35 34 37 38 36 35 43 47 45
54 52 51 50 49 48 46 48 50 49 51 50 50 51 51 49 47 44 43 43 44 43 41 40 36 35 35 40 37 37 39 41 38 36 35 34 32 34 32 35 34 35 35
53 52 51 50 49 49 48 46 45 46 47 48 48 48 46 47 45 41 40 40 39 37 40 41 42 41 35 35 36 36 35 32 38 35 33 32 32 31 31 36 32 33 32
53 52 50 50 50 49 49 48 46 42 42 43 42 42 42 40 39 38 37 36 36 36 38 40 38 36 36 34 33 33 38 37 35 36 33 31 29 31 26 32 32 31 33
52 49 50 47 46 48 49 48 47 45 44 42 39 40 37 36 36 36 36 36 36 35 34 38 35 35 34 34 34 36 35 35 34 34 34 32 31 30 29 30 29 30 29
42 35 34 34 33 32 32 31 32 36 41 40 39 36 34 34 35 34 33 35 37 38 34 32 34 34 33 34 35 37 37 37 33 36 35 34 34 31 31 29 28 22 20
35 33 33 34 33 33 32 32 33 34 34 36 37 36 35 36 34 34 34 35 35 33 31 31 33 35 34 36 35 37 37 36 35 34 33 33 35 31 30 30 28 28 27
32 33 35 33 33 33 33 34 34 32 30 29 34 33 34 34 32 34 34 35 35 32 33 33 31 33 37 37 36 35 34 34 36 37 34 34 35 30 31 32 29 28 27
34 35 35 35 36 36 35 36 36 35 34 32 33 31 29 28 26 28 29 29 30 31 31 32 31 31 31 34 37 36 35 32 33 34 33 32 32 32 32 30 29 27 27
36 35 36 37 38 39 40 40 40 39 38 37 35 31 26 27 26 27 28 29 31 32 32 32 32 32 32 33 33 35 32 32 33 34 34 33 33 32 31 30 28 27 25
38 38 41 42 41 40 40 40 40 39 38 38 38 40 37 36 34 35 33 33 33 34 36 34 34 32 34 35 34 33 32 33 33 32 32 31 30 30 31 30 28 27 25
42 45 44 42 40 40 41 40 40 41 40 39 38 40 40 40 39 40 40 40 40 39 39 38 36 35 35 35 34 34 32 26 28 29 30 29 28 28 31 30 29 29 25
42 40 41 40 39 39 39 39 39 38 36 35 36 39 36 35 33 34 36 41 40 42 41 44 45 42 44 40 40 38 33 28 27 26 31 32 30 28 28 28 28 27 26

GFSGL_sfc_30mbdewp_027.txt.gz
Dewpoint
67 67 66 66 66 66 67 65 65 65 64 63 66 66 65 65 65 65 65 65 65 64 66 66 66 67 66 66 66 66 65 64 61 64 64 62 61 60 59 59 59 59 59
66 65 66 66 66 66 66 65 64 63 63 63 65 65 65 65 65 63 63 63 62 62 63 63 63 64 64 65 65 65 65 66 64 63 61 58 58 58 57 57 57 58 58
65 65 66 66 65 65 65 64 64 64 63 63 64 64 63 64 63 63 62 61 61 61 61 61 61 63 62 63 63 64 64 64 64 62 59 59 58 57 56 56 56 57 57
65 65 66 66 65 65 65 64 64 65 64 63 63 63 61 62 63 62 61 60 60 59 58 59 59 60 61 62 62 63 62 61 60 60 59 58 57 58 56 54 53 55 53
66 65 66 67 66 66 65 65 64 62 62 63 61 60 59 59 60 61 61 61 60 59 57 57 58 59 60 60 60 61 61 60 58 58 57 57 57 57 56 55 52 52 53
64 65 67 67 66 66 65 64 63 62 63 62 60 59 58 55 56 59 60 59 59 58 58 57 56 55 55 54 54 57 60 58 57 56 56 56 56 57 55 53 52 52 50
67 68 67 67 66 66 65 64 63 62 62 61 60 58 56 54 53 56 60 59 58 58 57 54 52 53 50 47 46 48 52 56 57 56 55 56 56 57 56 54 55 53 52
65 64 64 65 66 66 65 64 63 62 60 59 58 57 53 50 50 54 58 56 53 53 54 54 52 51 50 42 39 37 38 45 51 51 51 47 50 57 56 56 54 53 53
61 61 60 61 62 66 65 64 63 61 61 59 60 57 53 49 49 50 57 55 52 49 49 50 50 49 50 50 44 41 40 38 40 42 42 43 46 49 51 55 52 52 51
59 59 58 59 61 66 65 65 63 62 61 58 56 55 54 48 47 49 54 54 51 49 48 46 46 46 46 52 49 48 45 44 42 42 42 43 45 46 47 48 47 49 51
57 57 56 57 58 61 64 64 63 61 58 57 55 52 49 48 46 47 50 53 51 49 46 45 43 42 43 45 46 47 45 45 45 47 48 46 43 45 46 46 46 44 44
55 55 54 55 56 57 59 60 61 60 58 55 52 49 48 47 45 44 46 49 49 46 45 44 41 39 38 40 38 36 35 36 39 43 39 40 40 39 44 46 45 45 46
54 53 53 53 53 54 55 56 55 55 54 52 51 49 48 49 47 42 42 46 44 43 39 36 34 34 35 37 33 34 37 38 40 37 35 34 32 38 45 48 47 48 45
52 51 51 50 50 51 51 52 52 52 51 51 50 49 49 49 46 44 40 38 36 36 38 39 40 40 37 39 33 37 34 35 36 35 34 36 40 39 37 42 46 46 43
52 51 50 49 48 47 47 49 50 48 51 50 50 51 50 48 45 43 43 43 45 40 40 39 36 35 33 35 41 39 37 37 35 33 32 32 34 37 34 34 32 37 43
52 51 50 49 49 48 47 46 45 46 48 48 48 48 47 46 45 41 40 39 39 37 38 39 41 42 43 39 37 38 36 37 35 34 33 31 32 28 25 29 34 31 33
51 51 51 50 50 49 47 46 45 43 43 43 43 42 44 42 39 38 37 36 36 35 35 37 39 38 35 34 36 38 34 33 34 36 31 32 28 30 30 29 32 31 33
53 52 51 51 50 49 49 47 45 43 42 41 39 39 38 37 37 36 36 35 34 38 34 31 39 34 33 33 36 36 37 35 38 36 33 32 31 31 29 30 31 31 26
54 49 44 43 48 49 50 49 46 45 43 40 38 37 35 35 35 34 33 30 31 35 38 39 37 33 32 35 36 35 35 35 34 33 33 33 34 35 30 30 32 24 21
36 33 32 32 32 37 34 34 40 42 42 40 37 35 35 35 32 31 32 32 34 36 37 33 36 35 37 35 35 35 34 36 35 34 34 33 32 36 29 30 31 30 26
33 33 34 39 37 35 35 34 36 36 39 41 39 37 36 33 34 34 34 34 33 35 33 31 32 35 37 37 35 35 34 34 35 37 37 34 35 35 32 31 29 29 29
36 37 36 36 35 39 39 38 38 37 34 35 36 36 36 35 33 29 31 36 36 36 33 31 30 33 32 34 37 37 34 33 33 32 34 36 35 33 33 32 30 29 29
37 39 38 40 41 41 41 42 41 40 40 40 34 31 32 29 27 26 26 29 32 33 34 34 33 32 32 31 34 38 36 35 33 34 35 32 33 33 33 32 32 31 28
45 43 42 41 40 40 43 42 41 41 41 40 37 32 28 28 31 28 33 36 36 35 37 36 34 32 33 34 36 35 36 35 34 32 32 31 29 30 29 29 31 31 30
45 45 43 42 42 41 41 40 40 41 37 35 41 40 39 42 42 42 43 43 43 43 43 43 43 41 37 37 36 37 37 32 29 34 34 30 28 27 27 27 29 30 30
42 42 42 42 42 42 41 41 39 37 33 34 39 40 41 42 42 42 42 42 42 41 39 38 35 34 34 34 33 33 32 33 37 34 29 32 30 29 29 27 27 28 29

GFSGL_sfc_30mbdewp_030.txt.gz
Dewpoint
67 67 66 65 66 65 64 64 63 62 62 65 65 65 64 63 63 63 63 63 62 63 64 64 64 65 65 66 66 65 65 63 61 60 61 61 60 58 58 59 59 58 59
67 66 66 65 66 64 63 63 62 62 63 63 63 63 63 63 62 62 61 61 61 60 61 62 62 63 63 64 64 64 64 64 62 59 59 58 57 57 58 57 57 58 58
67 65 65 65 65 64 63 63 63 62 63 64 63 62 62 62 61 61 60 59 59 59 59 59 60 61 62 62 62 62 62 62 63 60 57 58 57 57 56 56 56 56 56
65 66 65 65 64 64 64 64 64 63 63 63 61 61 61 62 61 60 59 58 57 57 58 58 59 60 61 61 61 61 60 60 60 59 57 57 56 56 55 54 53 54 52
65 65 66 66 65 65 64 63 62 62 63 61 60 59 58 59 60 61 60 59 56 55 55 56 57 57 56 59 60 60 59 58 59 58 57 57 56 55 54 54 52 51 52
65 65 67 66 65 65 64 62 62 63 61 59 59 58 56 54 56 60 59 59 58 56 55 54 55 52 51 54 56 59 59 57 56 56 56 56 56 55 54 53 51 51 50
67 67 67 66 66 65 64 63 61 62 60 58 58 56 53 52 54 59 58 56 57 56 52 51 49 48 45 45 48 52 55 57 57 56 55 55 56 57 55 53 53 54 52
64 64 65 66 66 65 64 63 62 61 60 58 56 53 51 49 52 57 54 53 53 53 52 51 50 47 43 38 38 39 43 49 52 51 50 52 56 56 55 55 53 52 51
61 60 60 61 63 66 65 63 62 60 60 57 55 52 50 48 49 54 53 50 50 49 49 49 48 49 49 43 43 42 40 39 42 45 47 49 48 52 55 53 51 50 50
58 58 58 60 62 66 65 63 62 61 59 57 54 52 50 47 47 52 54 51 47 46 46 45 46 45 50 48 46 45 46 47 44 43 44 45 45 47 47 47 47 50 51
57 56 57 58 60 63 64 64 62 59 57 53 51 49 47 46 46 48 54 50 49 47 45 44 41 41 43 47 49 46 43 42 42 47 46 42 43 44 43 45 45 48 46
55 55 55 56 57 59 62 62 60 58 55 52 50 49 48 46 43 45 49 52 48 45 44 42 40 36 37 37 34 36 40 41 40 42 45 39 38 41 44 43 44 45 45
54 54 53 53 54 55 57 57 57 56 54 52 50 49 49 48 46 41 43 44 45 43 38 36 38 39 39 36 35 37 35 38 37 35 35 34 33 40 45 46 46 44 43
53 51 51 51 51 52 53 53 54 53 52 51 50 49 49 48 43 42 41 38 37 38 41 41 38 36 35 36 37 39 39 38 35 34 34 36 39 38 39 42 43 44 42
51 50 50 49 49 49 48 49 50 49 51 51 50 50 49 47 43 42 41 42 43 38 39 39 40 40 40 39 39 39 36 35 32 32 30 31 32 34 34 35 33 39 43
50 49 49 48 48 48 48 47 45 46 48 49 50 49 46 46 43 40 39 39 38 37 37 37 37 41 39 36 35 38 36 35 34 33 31 30 31 27 25 28 33 32 32
50 50 49 48 48 47 47 47 46 44 42 44 44 45 47 46 41 38 37 36 37 35 32 32 37 35 34 36 36 35 34 34 35 36 31 31 29 29 29 30 32 30 30
51 51 50 49 48 47 47 46 44 44 43 42 40 40 40 39 38 36 36 34 33 38 36 36 36 35 33 34 35 36 35 33 35 36 33 32 31 33 33 31 30 31 29
52 51 51 50 49 48 47 46 44 43 41 40 39 38 37 36 36 35 34 28 29 33 35 38 38 36 33 35 35 36 35 34 33 33 33 32 33 33 32 31 31 30 27
53 52 50 47 49 49 49 47 45 45 41 38 37 36 36 34 32 29 29 29 30 33 36 34 37 35 35 36 35 34 34 34 34 34 34 34 34 33 33 30 31 29 28
35 36 36 37 37 41 47 46 46 45 42 39 36 36 35 32 31 32 33 33 32 33 35 34 36 35 36 37 36 35 35 33 34 34 36 34 36 35 35 34 32 31 30
34 33 36 37 38 36 36 36 37 40 41 40 40 39 37 34 33 34 34 34 35 35 35 35 31 32 33 34 35 36 35 34 34 34 33 34 35 35 36 34 33 31 31
37 37 39 38 40 41 43 43 40 41 40 37 38 37 37 36 34 33 30 28 31 34 37 36 33 34 35 36 37 38 38 37 35 35 33 33 32 32 33 32 31 30 29
43 41 42 42 42 43 43 42 42 39 39 39 35 33 32 33 34 39 42 43 41 43 43 40 38 37 36 35 35 34 34 34 33 35 35 34 33 31 30 30 29 28 28
45 43 42 41 40 39 39 38 38 37 37 42 41 42 42 42 42 42 42 41 40 37 36 35 35 34 33 33 32 32 32 32 32 33 34 32 31 30 30 28 27 28 28
42 42 43 43 43 42 42 41 40 40 41 42 42 42 41 40 39 39 40 41 40 37 35 32 28 29 29 27 26 27 28 29 31 32 33 36 35 33 31 30 30 29 29

GFSGL_sfc_30mbdewp_033.txt.gz
Dewpoint
67 66 65 65 64 64 63 63 62 62 64 64 63 63 62 62 62 61 61 61 61 61 62 62 63 64 64 65 65 66 65 63 61 60 61 60 59 58 58 58 58 58 58
67 66 65 65 64 63 62 62 62 63 63 62 62 62 62 61 61 61 60 59 59 59 60 61 61 62 62 63 63 64 64 64 62 59 59 57 56 57 57 57 57 57 57
67 66 65 65 64 63 62 62 62 63 62 62 61 61 61 60 60 59 58 57 58 58 59 59 60 61 61 61 61 61 61 62 61 59 57 57 56 56 55 56 55 54 55
66 66 65 64 64 63 63 63 62 63 62 61 60 60 61 60 59 58 57 56 56 57 57 57 58 58 59 60 60 60 61 60 60 58 56 56 56 56 55 53 52 53 52
66 65 65 65 64 64 63 63 62 62 61 59 59 58 58 58 59 59 57 55 54 54 54 54 55 57 58 60 59 58 58 59 58 57 56 56 55 54 53 54 52 51 52
66 65 66 65 64 64 63 61 62 61 59 59 57 56 54 54 57 60 59 57 56 54 51 48 50 51 53 56 58 59 58 57 57 57 57 56 56 56 55 53 51 51 50
66 66 66 66 64 64 63 62 62 60 58 57 56 54 52 53 57 57 57 56 53 51 49 45 44 44 45 49 52 53 54 56 56 56 56 56 56 56 54 52 52 53 52
65 65 66 66 65 64 64 62 62 60 58 57 54 51 50 51 55 54 54 53 52 51 50 49 44 42 40 39 41 45 46 48 48 50 52 53 57 57 55 54 53 51 51
62 61 61 63 65 64 64 62 62 60 58 56 53 51 49 48 52 52 52 51 49 48 49 48 48 48 45 44 40 39 40 41 46 47 48 48 51 55 54 52 51 50 50
59 59 60 60 62 64 65 63 62 60 57 54 52 50 48 47 47 53 51 48 47 46 45 44 45 47 50 46 45 45 44 44 42 42 43 42 44 46 47 46 49 50 51
57 58 58 59 60 64 64 63 60 58 54 52 49 48 46 45 45 50 52 49 48 46 44 42 40 43 47 51 49 45 43 46 46 46 43 40 42 42 43 43 44 48 48
56 56 56 57 58 61 63 61 59 56 53 51 49 49 48 47 45 48 52 51 47 45 44 41 36 38 37 35 36 38 41 41 38 43 42 37 37 40 42 43 45 44 44
55 55 55 55 55 57 59 59 57 55 53 51 50 50 49 49 46 43 44 45 45 41 37 38 40 36 36 36 38 36 38 40 39 41 42 37 34 37 43 45 45 42 42
54 53 52 52 53 53 54 55 55 54 53 51 50 50 49 45 42 44 42 40 39 40 41 38 36 36 36 37 40 37 41 36 34 33 33 36 38 38 38 41 40 43 41
52 51 50 50 50 50 48 50 52 51 52 52 51 50 49 44 43 43 42 42 39 38 39 40 40 41 40 40 40 39 36 34 31 31 30 30 31 32 32 35 33 36 41
50 50 50 49 49 49 48 48 45 47 49 51 51 50 48 46 43 41 39 39 37 37 36 35 38 39 34 33 35 37 36 34 34 32 31 30 30 28 27 28 33 32 31
50 49 48 48 48 47 47 47 47 45 43 44 45 47 47 45 42 39 37 36 36 33 30 32 37 35 33 35 35 35 33 34 34 36 31 31 29 29 30 30 31 31 31
50 49 48 48 47 47 46 45 45 45 45 44 41 41 42 41 38 36 35 33 32 37 36 36 36 34 34 34 36 35 35 33 33 35 34 33 32 33 33 31 30 30 29
50 50 49 48 47 46 46 44 42 41 41 41 40 39 38 36 36 36 34 27 31 33 35 36 38 36 34 34 35 35 35 34 33 33 34 33 33 33 32 33 30 31 30
51 51 50 49 48 47 46 44 42 41 39 38 37 36 37 35 33 31 30 29 30 31 33 35 36 38 35 34 36 35 34 34 34 34 33 34 35 34 33 32 32 31 29
52 51 50 49 49 49 48 47 45 44 42 39 37 36 35 32 30 29 29 30 30 31 32 35 35 36 36 36 36 35 35 34 34 34 34 35 34 33 34 35 34 33 32
38 40 42 41 42 45 47 48 46 45 45 42 40 39 37 35 31 32 34 35 34 35 36 35 33 32 34 36 37 37 36 36 36 35 35 34 34 34 34 33 33 32 31
35 36 38 38 38 37 38 39 39 40 40 40 41 40 38 37 36 34 34 32 33 39 38 38 36 37 38 36 35 36 36 36 35 34 36 36 35 34 33 32 32 31 30
38 39 40 39 43 43 43 42 40 39 41 39 37 36 35 35 37 42 43 41 38 37 36 35 34 34 33 32 31 31 31 32 33 33 35 35 34 34 33 32 31 30 30
44 42 42 42 40 40 38 37 37 41 41 41 41 41 42 41 42 40 39 37 35 32 31 31 30 28 24 23 22 24 26 27 31 33 34 35 35 36 35 33 32 30 29
42 41 41 42 41 42 40 39 40 41 42 42 41 40 39 39 39 39 40 38 34 31 26 24 23 23 22 22 23 23 24 26 26 28 33 34 34 34 34 34 35 35 33

GFSGL_sfc_30mbdewp_036.txt.gz
Dewpoint
66 65 64 64 64 64 62 62 62 63 63 62 62 62 61 61 61 61 61 60 60 61 62 62 63 64 64 65 66 66 64 63 61 60 61 60 58 58 58 58 58 58 58
66 65 64 64 64 63 62 62 62 62 62 62 61 61 60 60 59 59 59 59 59 59 60 61 61 62 62 63 64 64 65 64 62 59 59 56 56 57 57 56 56 56 57
66 65 65 64 63 63 62 62 62 62 61 61 61 60 59 59 58 58 58 58 58 58 59 59 60 60 60 61 61 61 62 62 62 59 57 57 56 56 55 55 54 53 54
66 65 65 64 63 63 63 62 62 62 61 60 60 60 60 59 57 57 56 56 55 55 56 57 58 59 60 60 60 60 61 60 59 58 56 56 55 56 55 53 52 52 51
66 66 65 65 64 64 63 63 62 61 60 59 58 58 58 58 59 56 55 55 54 51 52 53 56 59 60 60 59 59 60 59 58 57 56 55 54 54 54 54 51 52 52
65 66 65 65 64 64 63 62 62 60 59 58 56 55 56 57 59 59 57 55 52 48 49 48 49 52 55 56 57 58 58 59 58 57 57 56 55 56 55 53 51 52 51
65 66 66 65 64 64 63 62 61 59 59 57 55 54 55 57 57 57 56 53 51 50 45 43 42 45 49 51 51 51 52 55 57 58 57 56 56 56 55 53 52 53 52
66 66 66 66 64 64 63 62 61 59 58 56 53 52 54 54 54 55 53 52 51 50 50 47 44 44 44 47 47 45 47 50 50 50 52 52 57 57 55 54 54 52 52
63 64 64 65 64 64 63 62 62 59 57 55 52 51 51 51 52 53 53 51 49 48 48 49 50 47 45 42 43 44 45 45 45 46 47 49 53 53 54 54 53 51 50
60 60 60 61 63 64 64 63 61 59 56 52 50 49 48 47 50 51 51 49 47 47 45 44 46 50 46 47 46 44 42 44 44 44 42 43 44 46 46 47 49 51 51
58 59 59 59 61 62 64 63 60 57 54 51 49 47 46 46 48 52 50 49 47 45 44 42 41 44 48 46 45 45 45 49 48 46 42 41 43 43 43 45 47 49 49
57 57 58 58 59 62 62 60 58 55 52 50 49 48 49 47 46 51 53 50 46 45 43 39 40 37 37 38 38 41 43 41 41 46 42 39 39 42 44 45 47 46 46
56 56 56 56 57 59 60 58 56 54 53 51 51 50 49 48 47 44 47 46 43 39 37 40 37 36 36 40 39 37 40 42 42 43 44 41 36 37 44 47 48 46 45
55 54 54 54 54 55 56 57 56 54 53 52 51 50 48 43 44 44 42 41 40 41 39 38 37 38 39 39 40 39 41 38 36 36 36 37 39 39 38 40 41 43 44
54 53 52 52 52 51 49 51 53 52 53 52 52 51 47 43 43 42 43 42 38 39 40 41 41 42 41 41 40 39 38 36 34 34 33 33 33 31 31 35 36 36 39
52 51 51 51 50 50 50 49 45 47 50 51 51 50 48 44 42 40 40 39 37 38 37 37 40 38 35 35 36 38 38 36 36 36 34 33 32 32 32 33 35 35 34
51 50 50 50 49 49 49 49 49 45 43 45 46 46 45 44 41 39 37 37 36 33 34 37 39 36 35 36 36 36 35 36 38 37 36 35 33 33 33 34 34 33 33
50 49 49 48 48 48 47 47 47 47 47 45 41 43 43 41 38 36 35 34 34 38 37 37 37 36 36 36 37 37 37 36 36 37 36 36 35 35 35 35 34 33 33
49 49 48 48 47 46 45 44 44 43 42 42 42 40 38 37 36 36 34 30 35 35 36 37 38 38 36 36 37 38 38 36 36 36 36 36 36 35 35 34 34 32 33
50 49 48 48 47 46 45 42 40 39 39 38 37 38 38 36 35 33 33 30 30 33 34 36 37 40 40 38 38 38 37 36 37 36 36 36 37 37 35 35 35 34 34
51 51 50 49 48 47 46 45 43 42 40 39 37 37 35 33 31 30 29 31 32 33 34 35 36 38 38 38 39 38 37 37 37 37 37 37 37 35 36 36 36 36 35
51 51 51 50 49 49 49 48 48 46 45 43 41 39 36 35 32 33 35 36 36 35 36 37 36 35 36 38 39 39 38 38 38 37 37 37 37 36 36 35 34 34 34
42 44 47 47 46 44 45 46 47 46 45 44 44 42 39 38 37 35 36 38 40 39 39 38 38 36 35 35 35 34 35 35 35 36 37 38 37 36 35 35 34 33 33
36 37 38 38 39 39 39 39 40 41 42 41 40 40 40 39 38 41 41 38 37 36 36 35 34 32 28 26 24 23 26 30 33 34 35 36 36 37 38 38 37 36 34
38 39 40 41 42 42 43 41 39 41 40 40 39 41 41 42 41 39 37 35 33 32 30 28 24 22 21 20 19 20 24 25 26 30 32 33 34 35 35 35 36 36 36
44 42 42 42 42 41 39 39 42 42 41 41 41 41 40 40 40 38 36 34 30 26 24 23 22 21 20 19 20 22 23 24 23 24 22 20 19 19 21 26 29 33 35

GFSGL_sfc_30mbdewp_042.txt.gz
Dewpoint
68 66 66 65 65 64 63 63 64 63 63 64 64 64 64 64 64 64 64 64 63 64 65 65 65 66 66 67 68 68 66 65 61 58 59 60 59 59 59 59 59 59 58
67 66 66 65 64 63 62 63 64 63 63 63 63 63 62 62 63 62 62 62 62 62 62 63 63 64 64 65 65 66 67 66 63 57 57 57 56 57 58 57 56 56 56
65 65 65 65 64 64 63 63 63 63 62 62 62 61 61 61 61 61 61 61 62 62 62 62 63 63 63 63 64 63 64 65 63 59 56 57 56 56 55 55 54 54 54
61 65 65 65 65 64 64 64 63 62 62 61 61 60 59 59 59 59 59 60 60 61 61 61 61 61 62 62 62 62 63 61 61 59 56 56 56 56 56 54 53 52 51
61 63 65 66 66 65 64 64 63 62 62 61 61 60 59 57 58 58 55 57 58 58 59 59 59 58 58 59 59 62 61 60 59 58 56 56 55 55 55 55 54 53 53
61 63 65 66 66 66 65 64 63 63 62 61 60 59 58 55 57 55 54 54 53 53 54 55 57 58 56 56 57 57 59 60 59 58 58 57 57 56 56 56 54 54 54
62 63 66 68 67 66 66 65 63 63 62 61 60 60 59 59 55 54 55 53 52 53 52 51 50 53 54 55 56 55 54 54 58 58 57 57 57 58 57 56 56 55 54
63 63 67 67 67 66 66 65 64 63 61 60 60 60 59 58 54 54 55 55 55 55 54 54 51 49 51 52 52 48 44 48 50 48 51 51 54 55 55 55 56 56 55
63 64 66 68 67 67 65 65 65 63 62 60 60 60 59 57 53 53 55 54 54 55 55 55 54 50 45 48 49 48 43 38 43 48 49 47 43 44 46 44 47 45 51
62 65 65 67 67 67 66 66 65 64 61 59 58 59 57 58 52 52 53 52 52 52 53 54 50 52 50 50 51 48 47 46 45 46 47 47 46 45 45 44 38 36 37
64 63 64 65 66 66 67 66 65 63 60 58 56 56 57 57 56 51 51 51 51 49 49 49 50 46 38 39 43 48 50 51 45 46 43 39 39 39 38 42 44 37 37
63 63 63 63 63 65 66 65 63 61 59 57 56 54 54 55 53 50 50 51 49 48 45 45 39 38 36 38 39 41 39 41 40 41 40 38 34 34 36 40 45 44 42
61 61 61 62 63 64 64 61 59 59 58 55 55 53 53 53 54 50 48 47 47 45 43 42 37 38 37 36 37 39 41 36 35 34 34 34 35 38 42 39 40 44 48
60 60 60 60 59 60 61 60 59 58 56 55 56 55 54 52 52 53 51 45 42 41 38 38 39 40 39 38 40 38 36 35 35 33 34 34 34 33 32 32 31 31 31
59 58 59 58 56 53 51 54 58 57 58 57 56 54 53 52 51 48 48 47 45 43 43 39 38 42 41 38 37 36 35 35 34 33 33 32 31 31 31 33 32 30 29
57 57 57 56 55 53 53 51 47 49 52 54 54 54 51 46 43 42 40 38 38 39 41 41 42 39 35 32 32 33 33 33 34 33 33 33 32 32 32 31 32 31 30
56 55 55 55 55 54 53 52 50 48 47 48 48 46 46 44 41 40 39 36 36 37 41 41 40 37 33 32 33 33 33 34 39 34 34 34 33 33 32 31 31 31 31
56 54 55 54 55 55 55 54 53 53 52 50 46 45 42 41 39 38 38 38 37 36 40 41 38 34 33 35 35 35 35 35 35 35 34 34 33 33 32 32 31 31 31
55 54 55 55 55 54 54 54 53 52 50 50 48 45 42 39 37 36 34 42 41 39 39 37 35 34 36 36 37 38 39 36 34 35 35 34 34 33 33 32 31 31 31
55 52 53 52 48 46 45 44 42 40 39 38 39 41 45 42 41 40 39 38 36 34 34 34 34 37 37 38 38 38 37 37 37 36 35 35 35 35 34 33 32 32 31
52 49 46 40 35 33 32 31 32 33 34 37 37 36 36 34 32 33 33 33 33 33 33 33 34 35 36 37 37 38 36 35 35 36 36 36 37 36 38 35 33 32 31
48 43 41 38 35 35 36 36 37 37 37 36 36 35 35 35 33 32 33 32 33 34 35 35 34 34 34 35 38 39 36 36 36 38 39 38 38 38 38 39 37 34 33
50 45 42 40 40 38 39 38 38 38 38 38 37 36 31 32 35 35 35 36 37 37 37 38 36 36 37 39 38 38 36 37 38 39 39 38 38 38 37 36 34 32 30
54 47 46 43 42 40 40 41 41 41 41 41 41 41 41 38 37 36 35 37 40 38 39 39 38 37 39 36 34 32 31 30 34 33 34 33 33 30 27 22 16 15 20
53 50 46 42 42 42 42 41 40 39 40 42 42 42 42 42 42 41 41 40 40 39 38 37 36 37 36 34 32 29 19 19 21 16 21 21 17 19 15 13 12 14 14
52 47 45 42 40 40 40 38 39 41 41 41 41 42 41 41 41 41 40 40 39 38 37 36 36 35 35 32 29 19 18 17 19 18 20 15 15 15 14 14 13 15 13

GFSGL_sfc_30mbdewp_045.txt.gz
Dewpoint
68 67 65 64 64 63 63 63 63 63 63 64 64 64 64 64 64 63 64 64 64 64 65 65 65 66 67 68 68 69 67 66 60 58 59 60 59 59 59 59 59 59 57
66 65 65 64 63 63 62 62 63 63 63 63 63 63 62 62 62 61 61 63 63 63 63 64 64 64 65 65 65 66 67 66 61 56 57 57 57 58 58 58 57 57 56
64 64 63 63 63 63 62 63 63 62 62 62 62 61 61 61 61 61 61 61 62 62 62 62 63 63 63 64 64 63 64 64 61 58 55 56 56 56 55 55 55 55 55
60 62 62 63 64 64 64 63 63 62 61 62 61 61 60 60 60 59 60 60 60 60 60 60 60 61 62 62 63 64 63 61 60 58 56 56 56 56 56 54 52 53 52
62 62 63 65 66 65 65 64 63 62 62 62 61 60 59 57 58 57 59 59 58 58 58 57 58 58 58 59 61 62 62 59 58 56 56 55 55 55 56 56 54 53 53
59 61 65 66 66 66 65 65 64 62 62 62 61 59 57 54 55 55 56 55 55 56 55 56 59 58 57 56 56 57 61 61 59 57 57 57 57 57 56 55 55 54 54
61 62 65 67 67 67 66 66 64 63 62 61 61 60 60 57 54 54 56 55 55 55 54 53 52 54 56 56 55 54 53 56 59 60 59 58 58 58 58 57 56 56 55
63 62 66 67 67 67 67 66 65 64 63 61 61 61 60 57 54 54 55 57 56 56 56 54 52 53 50 53 47 44 47 51 52 50 52 50 53 53 55 55 56 55 55
64 64 65 67 67 68 67 66 66 65 63 61 61 61 60 58 53 53 55 56 56 56 57 57 54 49 49 50 50 46 42 39 42 42 40 40 41 43 44 44 52 41 45
63 65 64 66 67 68 67 66 67 65 63 61 61 61 60 59 53 52 52 54 55 55 55 54 51 51 44 45 52 50 49 48 47 50 49 48 48 45 44 46 40 36 38
65 65 66 67 67 67 67 67 66 65 63 61 60 60 59 59 56 51 51 53 53 53 52 52 49 38 37 40 42 50 51 52 44 48 45 42 41 40 40 43 45 40 38
65 65 64 65 66 67 67 67 67 65 62 61 59 58 58 58 58 51 50 50 52 50 49 48 41 36 36 37 38 39 38 40 41 41 40 38 35 35 37 42 46 45 41
63 63 63 64 64 65 66 66 64 62 61 61 59 56 56 57 56 50 48 49 50 49 47 43 35 35 35 34 36 38 39 40 36 35 35 35 36 38 41 43 38 45 48
62 62 62 62 63 63 65 63 61 60 60 59 58 56 56 55 55 54 52 49 45 44 41 37 39 41 41 40 38 39 36 35 36 34 34 35 34 34 34 34 33 32 31
60 60 60 60 59 56 53 55 60 60 58 57 57 58 56 55 54 52 52 51 48 45 42 42 39 40 43 42 38 36 36 37 34 34 34 33 33 33 33 33 34 33 31
59 59 59 59 56 54 53 52 49 51 54 56 54 55 51 49 47 46 43 42 43 40 40 38 42 43 39 34 33 34 34 34 35 35 35 34 33 33 33 33 33 33 32
59 58 57 56 56 55 55 54 52 50 49 49 49 48 48 44 43 42 40 38 38 38 42 43 42 40 36 33 33 33 34 36 42 35 34 34 34 33 33 33 32 32 32
58 56 56 55 56 56 55 55 56 54 52 51 46 45 42 41 41 40 39 37 39 37 41 42 41 39 34 35 35 36 36 37 37 36 35 35 34 34 33 32 31 31 31
56 56 55 55 55 55 57 56 55 55 55 53 50 45 42 40 39 38 38 43 42 40 41 40 40 36 35 37 38 38 40 37 34 35 36 35 34 34 33 32 31 31 31
57 55 54 55 54 55 55 55 54 53 51 50 48 48 47 44 44 44 43 44 43 40 38 37 36 36 37 38 39 39 38 39 39 38 35 35 35 35 33 34 35 33 31
55 55 54 53 53 50 48 47 45 44 42 38 38 41 44 43 39 40 41 40 36 35 35 34 34 37 38 39 38 38 36 35 35 34 34 35 36 34 34 33 33 34 33
54 54 49 47 41 37 35 33 32 32 33 36 37 39 39 39 34 35 35 35 35 35 35 35 35 35 35 36 39 38 36 35 35 35 36 38 37 36 34 34 33 34 33
54 55 49 42 40 36 34 35 35 36 36 37 37 36 34 36 36 35 35 35 35 36 37 37 37 36 36 39 40 39 37 37 37 39 39 39 38 36 34 33 31 28 25
53 55 52 42 41 38 36 38 37 38 38 38 38 38 35 35 36 37 37 37 38 39 39 39 37 37 36 39 39 38 36 34 37 37 37 36 35 32 26 22 17 13 14
53 55 53 47 45 42 41 40 42 42 42 43 43 43 42 42 41 41 41 39 40 40 39 39 39 40 41 41 36 31 17 14 26 13 23 27 23 19 19 16 16 15 16
52 54 52 49 48 46 42 43 42 44 45 45 43 43 42 42 42 43 43 43 42 40 39 39 39 39 39 39 36 21 14 15 22 14 16 14 15 17 16 17 16 14 15